Location: Oberwangen
(47.4286°N, 8.9679°E)
Time: 07:48:08
(UTC+00:00)

Cosmos 1447 Rocket - Pass Details

Date: 30 October 2021
Orbit: 953 x 996 km, 82.9° (Epoch: 27 November)

Event Time Altitude Azimuth Distance (km) Brightness Sun altitude
Rises 17:49:57 0° 348° (NNW) 3,643 7.6 -17.4°
Reaches altitude 10° 17:52:28 10° 346° (NNW) 2,693 7.0 -17.8°
Maximum altitude 17:58:32 66° 266° (W) 1,044 4.9 -18.8°
Drops below altitude 10° 18:04:36 10° 186° (S) 2,688 6.9 -19.9°
Sets 18:07:07 0° 183° (S) 3,635 7.5 -20.3°
